Lucknow, India

12:00 AM IST on August 19, 2017 (GMT +0530)
Lucknow

Weather History for VILK - January, 2014

Change the Weather History Date:

Wednesday, January 29, 2014

  Actual Average Record
Temperature  
Mean Temperature 54 °F -  
Max Temperature 59 °F 75 °F 80 °F (2007)
Min Temperature 49 °F 54 °F 40 °F (2013)
Degree Days  
Heating Degree Days 11    
Growing Degree Days 4 (Base 50)    
Moisture  
Dew Point 54 °F    
Average Humidity 93    
Maximum Humidity 100    
Minimum Humidity 82    
Precipitation  
Precipitation 0.00 in - - ()
Sea Level Pressure  
Sea Level Pressure 30.08 in    
Wind  
Wind Speed 3 mph ()    
Max Wind Speed 6 mph    
Max Gust Speed -    
Visibility 0.4 miles    
Events Fog    
Averages and records for this station are not official NWS values.
T = Trace of Precipitation, MM = Missing Value Source: Averaged Metar Reports

Daily Weather History Graph

Daily Weather History Graph

Search for Another Location

Airport or City:

Trip Planner

Search our weather history database for the weather conditions in past years. The results will help you decide how hot, cold, wet, or windy it might be!

Date:

Astronomy

Jan. 29, 2014 Rise Set
Actual Time 6:53 AM IST 5:46 PM IST
Civil Twilight 6:28 AM IST 6:10 PM IST
Nautical Twilight 6:00 AM IST 6:38 PM IST
Astronomical Twilight 5:33 AM IST 7:06 PM IST
Moon 5:02 AM IST (1/29) 4:13 PM IST (1/29)
Length of Visible Light 11h 41m
Length of Day
10h 52m
Waning Crescent, 4% of the Moon is Illuminated
Jan 29
Waning Crescent
Jan 31
New
Feb 7
First Quarter
Feb 15
Full
Feb 22
Last Quarter

Hourly Weather History & Observations

Time (IST) Temp. Dew Point Humidity Pressure Visibility Wind Dir Wind Speed Gust Speed Precip Events Conditions
12:00 AM 53.6 °F 53.6 °F 100% 30.04 in - ENE 4.6 mph - N/A Fog Fog
2:30 AM 54 °F 53 °F 95% 30.04 in 0 mi East 3.5 mph - - Fog Heavy Fog
3:00 AM 53.6 °F 53.6 °F 100% 30.01 in - East 4.6 mph - N/A Fog Fog
4:00 AM 53.6 °F 53.6 °F 100% 30.04 in - East 3.5 mph - N/A Fog Fog
5:00 AM 53.6 °F 51.8 °F 94% 30.01 in 0.1 mi ENE 3.5 mph - N/A Fog Fog
5:30 AM 54 °F 54 °F 98% 30.04 in 0 mi East 3.5 mph - - Fog Heavy Fog
7:00 AM 53.6 °F 53.6 °F 100% 30.06 in 0.1 mi ENE 3.5 mph - N/A Fog Fog
8:00 AM 53.6 °F 53.6 °F 100% 30.09 in 0.1 mi ESE 3.5 mph - N/A Fog Fog
8:30 AM 54 °F 54 °F 98% 30.13 in 0 mi East 3.5 mph - - Fog Heavy Fog
8:30 AM 53.6 °F 53.6 °F 100% 30.09 in 0.1 mi East 3.5 mph - N/A Fog Fog
9:00 AM 55.4 °F 53.6 °F 94% 30.12 in 0.1 mi ESE 3.5 mph - N/A Fog Fog
9:30 AM 55.4 °F 53.6 °F 94% 30.12 in 0.1 mi ESE 3.5 mph - N/A Fog Fog
10:00 AM 55.4 °F 55.4 °F 100% 30.12 in 0.2 mi SE 3.5 mph - N/A Fog Fog
10:30 AM 55.4 °F 55.4 °F 100% 30.12 in 0.2 mi SSE 3.5 mph - N/A Fog Fog
11:00 AM 55.4 °F 55.4 °F 100% 30.12 in 0.4 mi SE 3.5 mph - N/A Fog Fog
11:30 AM 56 °F 54 °F 93% 30.15 in 0 mi East 4.6 mph - - Fog Heavy Fog
11:30 AM 57.2 °F 55.4 °F 94% 30.12 in 0.5 mi East 4.6 mph - N/A Fog Fog
12:00 PM 57.2 °F 55.4 °F 94% 30.12 in 0.6 mi NE 5.8 mph - N/A Fog Shallow Fog
12:30 PM 57.2 °F 55.4 °F 94% 30.09 in 0.6 mi ENE 3.5 mph - N/A Fog Shallow Fog
1:00 PM 57.2 °F 55.4 °F 94% 30.09 in 0.6 mi East 3.5 mph - N/A Fog Shallow Fog
1:30 PM 57.2 °F 55.4 °F 94% 30.09 in 0.6 mi Variable 2.3 mph - N/A Fog Shallow Fog
2:00 PM 57.2 °F 53.6 °F 88% 30.06 in 0.6 mi Variable 2.3 mph - N/A Fog Shallow Fog
2:30 PM 59 °F 55 °F 84% 30.08 in 1 mi 2.3 mph - - Fog Patches of Fog
2:30 PM 59.0 °F 55.4 °F 88% 30.04 in 0.6 mi Variable 2.3 mph - N/A Fog Shallow Fog
3:00 PM 59.0 °F 55.4 °F 88% 30.04 in 0.7 mi Variable 2.3 mph - N/A Fog Shallow Fog
3:30 PM 59.0 °F 55.4 °F 88% 30.04 in 0.6 mi Variable 2.3 mph - N/A Fog Shallow Fog
4:00 PM 59.0 °F 55.4 °F 88% 30.04 in 0.6 mi Variable 2.3 mph - N/A Fog Shallow Fog
4:30 PM 59.0 °F 55.4 °F 88% 30.04 in 0.6 mi Variable 2.3 mph - N/A Fog Shallow Fog
5:00 PM 59.0 °F 55.4 °F 88% 30.04 in 0.6 mi NNW 2.3 mph - N/A Fog Shallow Fog
5:30 PM 58 °F 54 °F 83% 30.06 in 1 mi 2.3 mph - - Fog Patches of Fog
5:30 PM 59.0 °F 53.6 °F 82% 30.04 in 0.6 mi Variable 2.3 mph - N/A Fog Shallow Fog
6:00 PM 57.2 °F 53.6 °F 88% 30.04 in 0.6 mi NW 3.5 mph - N/A Fog Fog
7:00 PM 55.4 °F 53.6 °F 94% 30.06 in 0.5 mi NNW 5.8 mph - N/A Fog Fog
7:30 PM 55.4 °F 53.6 °F 94% 30.06 in 0.5 mi NNW 4.6 mph - N/A Fog Fog
8:00 PM 55.4 °F 53.6 °F 94% 30.06 in 0.5 mi WNW 4.6 mph - N/A Fog Fog
8:30 PM 56 °F 53 °F 85% 30.12 in 0 mi Calm Calm - - Fog Heavy Fog
8:30 PM 55.4 °F 53.6 °F 94% 30.09 in 0.5 mi NNW 3.5 mph - N/A Fog Fog
9:00 PM 55.4 °F 53.6 °F 94% 30.09 in 0.5 mi NW 3.5 mph - N/A   Unknown
10:00 PM 55.4 °F 51.8 °F 88% 30.09 in 0.5 mi NW 3.5 mph - N/A   Unknown
11:00 PM 53.6 °F 51.8 °F 94% 30.09 in 0.5 mi NW 5.8 mph - N/A   Unknown
11:30 PM 54 °F 52 °F 92% 30.13 in 0 mi NW 3.5 mph - - Fog Heavy Fog